#timestamp,LO_Frequency,Hit,StdDev 
1674864015.1,286047000.8,N
1674864016.0,286047000.8,N
1674864035.8,286046999.8,N
1674864055.6,286047000.1,N
1674864075.5,286047002.8,N
1674864095.3,286047001.4,N
1674864115.2,286046996.5,Y
1674864135.9,286046995.0,P
1674864155.7,286046995.4,N
1674864175.6,286046996.7,N
1674864195.4,286046999.4,N
1674864215.3,286046999.4,N
1674864235.1,286046999.2,N
1674864236.0,286046999.2,N
1674864255.8,286047001.1,N
1674864275.7,286047000.0,N
1674864295.5,286047000.0,N
1674864315.4,286047001.6,N
1674864335.2,286047000.7,N
1674864355.0,286047001.2,N
1674864355.9,286047001.2,N
1674864375.8,286046999.2,N
1674864395.6,286046997.0,N
1674864415.4,286046996.8,N
1674864435.3,286046993.7,Y
1674864455.1,286046994.0,P
1674864475.9,286046997.8,N
1674864495.7,286046997.5,N
1674864515.6,286046996.5,N
1674864535.4,286046998.3,N
1674864555.2,286047001.0,N
1674864575.1,286047001.0,N
1674864576.0,286047001.0,N
1674864595.8,286047000.3,N
1674864615.6,286047000.4,N
1674864635.5,286047000.2,N
1674864655.3,286047002.0,N
1674864675.2,286047001.4,N
1674864695.9,286047001.2,N
1674864715.7,286047000.7,N
1674864735.6,286046999.7,N
1674864755.4,286047002.8,N
1674864775.2,286047000.5,N
1674864795.1,286046998.8,N
1674864796.0,286046998.8,N
1674864815.8,286046998.7,N
1674864835.7,286046999.4,N
1674864855.5,286046997.7,N
1674864875.3,286046997.5,N
1674864895.2,286046993.9,Y
1674864915.0,286046997.6,P
1674864915.9,286046997.6,N
1674864935.8,286046995.3,P
1674864955.6,286046997.8,N
1674864975.4,286047001.2,N
1674864995.3,286046998.8,N
1674865015.1,286047001.2,N
1674865035.8,286047002.2,N
1674865055.7,286047001.4,N
1674865075.5,286047004.4,N
1674865095.4,286047002.0,N
1674865115.2,286046999.8,N
1674865135.0,286046999.9,N
1674865135.9,286046999.9,N
1674865155.8,286046998.4,N
1674865175.6,286047000.7,N
1674865195.4,286047001.0,N
1674865215.3,286046999.2,N
1674865235.1,286046998.7,N
1674865255.9,286047000.1,N
1674865275.7,286046999.4,N
1674865295.5,286046998.5,N
1674865315.4,286047001.1,N
1674865335.2,286047002.7,N
1674865355.0,286047000.1,N
1674865356.0,286047000.1,N
1674865375.8,286047002.2,N
1674865395.6,286047002.7,N
1674865415.5,286047002.2,N
1674865435.3,286047004.4,N
1674865455.1,286047004.3,N
1674865475.9,286047001.4,N
1674865495.7,286047004.0,N
1674865515.6,286047001.4,N
1674865535.4,286046998.5,N
1674865555.2,286046998.6,N
1674865575.1,286047001.0,N
1674865576.0,286047001.0,N
1674865595.8,286047000.7,N
1674865615.6,286047002.7,N
1674865635.5,286047002.7,N
1674865655.3,286047002.8,N
1674865675.2,286047002.6,N
1674865695.9,286047001.7,N
1674865715.7,286047001.6,N
1674865735.6,286047002.2,N
1674865755.4,286047002.8,N
1674865775.2,286047000.6,N
1674865795.1,286046998.3,N
1674865796.0,286046998.3,N
1674865815.8,286046998.1,N
1674865835.7,286046998.3,N
1674865855.5,286047002.4,N
1674865875.3,286046999.7,N
1674865895.2,286046999.7,N
1674865915.0,286046998.2,N
1674865915.9,286046998.2,N
1674865935.8,286047001.0,N
1674865955.6,286047000.2,N
1674865975.4,286047000.5,N
1674865995.3,286047004.2,N
1674866015.1,286047004.4,N
1674866035.9,286047001.7,N
1674866055.7,286047001.5,N
1674866075.5,286047001.6,N
1674866095.4,286047000.5,N
1674866115.2,286047001.7,N
1674866135.0,286047004.3,N
1674866136.0,286047004.3,N
1674866155.8,286047001.9,N
1674866175.6,286047001.7,N
1674866195.5,286047001.3,N
1674866215.3,286047001.7,N
1674866235.2,286047000.2,N
1674866255.9,286046999.8,N
1674866275.7,286047001.0,N
1674866295.6,286047000.6,N
1674866315.4,286046998.4,N
1674866335.2,286047000.6,N
1674866355.1,286047000.3,N
1674866356.0,286047000.3,N
1674866375.8,286047002.0,N
1674866395.7,286047000.0,N
1674866415.5,286047000.5,N
1674866435.3,286046999.7,N
1674866455.2,286047003.7,N
1674866475.0,286047004.3,N
1674866475.9,286047004.3,N
1674866495.8,286047003.9,N
1674866515.6,286047002.1,N
1674866535.4,286047001.4,N
1674866555.3,286047005.8,Y
1674866575.1,286046997.0,P
1674866595.9,286046998.0,N
1674866615.7,286046995.6,N
1674866635.6,286046995.3,N
1674866655.4,286046997.1,N
1674866675.2,286046996.5,N
1674866695.1,286046999.6,N
1674866696.0,286046999.6,N
1674866715.8,286046999.6,N
1674866735.7,286046998.9,N
1674866755.5,286046998.2,N
1674866775.3,286046998.5,N
1674866795.2,286046997.2,N
1674866815.0,286046997.5,N
1674866815.9,286046997.5,N
1674866835.7,286046997.8,N
1674866855.6,286046999.6,N
1674866875.4,286046999.3,N
1674866895.3,286046997.5,N
1674866915.1,286046996.1,N
1674866916.0,286046996.1,N
1674866935.8,286046996.7,N
1674866955.7,286046998.9,N
1674866975.5,286047000.1,N
1674866995.4,286047001.6,N
1674867015.2,286047001.4,N
1674867035.0,286047004.0,N
1674867035.9,286047004.0,N
1674867055.8,286047001.4,N
1674867075.6,286046999.7,N
1674867095.4,286047002.0,N
1674867115.3,286047004.0,N
1674867135.1,286046999.9,N
1674867155.9,286046999.9,N
1674867175.7,286047000.0,N
1674867195.5,286047001.8,N
1674867215.4,286047001.1,N
1674867235.2,286047000.3,N
1674867255.0,286047002.6,N
1674867255.9,286047002.6,N
1674867275.8,286047000.5,N
1674867295.6,286047000.5,N
1674867315.5,286047000.9,N
1674867335.3,286047000.5,N
1674867355.1,286046999.8,N
1674867375.9,286046997.1,N
1674867395.7,286046998.0,N
1674867415.5,286046997.8,N
1674867435.4,286046995.4,N
1674867455.2,286046999.1,N
1674867475.0,286046996.5,N
1674867476.0,286046996.5,N
1674867495.8,286046999.3,N
1674867515.6,286047000.8,N
1674867535.5,286047001.1,N
1674867555.3,286047002.7,N
1674867575.1,286047002.4,N
1674867595.9,286047004.1,N
